Location: Caltech
(34.1382°N, 118.1253°W)
Time: 17:43:25
(UTC-08:00)

Cosmos 44 Rocket - Visible Passes

Search period start: 24 November 2014 00:00
Search period end: 04 December 2014 00:00
Orbit: 659 x 733 km, 65.1° (Epoch: 24 November)

Date Brightness Start Highest point End Pass type
(mag) Time Alt. Az. Time Alt. Az. Time Alt. Az.
25 Nov 5.5 05:25:17 10° S 05:29:30 29° ESE 05:33:39 10° NE visible
26 Nov 3.3 06:06:36 10° SSW 06:11:31 74° WNW 06:16:22 10° NNE visible
27 Nov 4.8 05:07:45 10° S 05:12:20 39° ESE 05:16:51 10° NE visible
28 Nov 6.3 04:10:47 10° SE 04:13:22 14° ESE 04:15:56 10° ENE visible
28 Nov 3.4 05:49:38 10° SW 05:54:27 54° WNW 05:59:12 10° NNE visible
29 Nov 4.0 04:50:23 10° SSW 04:55:12 55° ESE 04:59:55 10° NE visible
30 Nov 5.7 03:52:38 10° SSE 03:56:10 20° ESE 03:59:39 10° ENE visible
30 Nov 3.7 05:32:48 10° SW 05:37:24 40° WNW 05:41:57 10° NNE visible
01 Dec 3.3 04:36:00 35° SSW 04:38:04 76° ESE 04:42:54 10° NNE visible
02 Dec 5.6 03:40:51 21° ENE 03:40:51 21° ENE 03:43:02 10° NE visible
02 Dec 4.0 05:19:43 29° WNW 05:20:23 30° NW 05:24:37 10° N visible
03 Dec 4.8 04:23:38 27° NNE 04:23:38 27° NNE 04:25:48 10° NNE visible
